This is the latest recevied weather packets stored in our database for station/object OM3WYM-13. If no packets are shown the sender has not sent any weather packets the latest 10 day(s).
| Time | Temp. | Humidity | Pressure | Rain* | Wind** | Luminosity | Snow |
|---|---|---|---|---|---|---|---|
| 1777716009 | 17.22° C | 35% | 1023.2 hPa | - | - | - | - |
| 1777715409 | 17.22° C | 35% | 1023.2 hPa | - | - | - | - |
| 1777714809 | 16.67° C | 35% | 1023.3 hPa | - | - | - | - |
| 1777714209 | 16.67° C | 37% | 1023.4 hPa | - | - | - | - |
| 1777713609 | 16.67° C | 37% | 1023.5 hPa | - | - | - | - |
| 1777713009 | 16.11° C | 37% | 1023.7 hPa | - | - | - | - |
| 1777711809 | 16.11° C | 38% | 1023.9 hPa | - | - | - | - |
| 1777711209 | 15.56° C | 38% | 1023.9 hPa | - | - | - | - |
| 1777710609 | 15° C | 38% | 1024 hPa | - | - | - | - |
| 1777710009 | 15° C | 39% | 1024.2 hPa | - | - | - | - |
| 1777709409 | 14.44° C | 40% | 1024.3 hPa | - | - | - | - |
| 1777708809 | 14.44° C | 41% | 1024.3 hPa | - | - | - | - |
| 1777708209 | 13.89° C | 43% | 1024.4 hPa | - | - | - | - |
| 1777707609 | 12.78° C | 48% | 1024.7 hPa | - | - | - | - |
| 1777707009 | 12.78° C | 50% | 1024.8 hPa | - | - | - | - |
| 1777706409 | 12.22° C | 52% | 1025 hPa | - | - | - | - |
| 1777705809 | 11.67° C | 55% | 1025.1 hPa | - | - | - | - |
| 1777705209 | 11.11° C | 57% | 1025.2 hPa | - | - | - | - |
| 1777704609 | 10° C | 60% | 1025.3 hPa | - | - | - | - |
| 1777704009 | 10° C | 62% | 1025.5 hPa | - | - | - | - |
| 1777703409 | 8.89° C | 64% | 1025.6 hPa | - | - | - | - |
| 1777702809 | 8.33° C | 66% | 1025.7 hPa | - | - | - | - |
| 1777702209 | 7.78° C | 69% | 1025.7 hPa | - | - | - | - |
| 1777701609 | 6.67° C | 74% | 1026 hPa | - | - | - | - |
| 1777701009 | 5.56° C | 79% | 1026.1 hPa | - | - | - | - |
* Rain since midnight (hover to see other rain measurements)
** Current wind speed in m/s (hover to see current wind gust speed)